Weather History for Greenwood, SC

Change the Weather History Date:

Tuesday, November 20, 2012

  Actual Average (KAND) Record (KAND)
Temperature  
Mean Temperature 52 °F -  
Max Temperature 64 °F 62 °F 78 °F (1979)
Min Temperature 39 °F 42 °F 19 °F (1951)
Degree Days  
Heating Degree Days 14    
Growing Degree Days 2 (Base 50)    
Moisture  
Dew Point 42 °F    
Average Humidity 81    
Maximum Humidity 97    
Minimum Humidity 45    
Precipitation  
Precipitation 0.00 in - - ()
Sea Level Pressure  
Sea Level Pressure 30.15 in    
Wind  
Wind Speed 1 mph (NNE)    
Max Wind Speed 5 mph    
Max Gust Speed -    
Visibility 10 miles    
Events      
Averages and records for this station are not official NWS values.
T = Trace of Precipitation, MM = Missing Value Source: NWS Daily Summary

Daily Weather History Graph

Daily Weather History Graph

Search for Another Location

Airport:

Trip Planner

Search our weather history database for the weather conditions in past years. The results will help you decide how hot, cold, wet, or windy it might be!

Date:

Astronomy

Nov. 20, 2012 Rise Set
Actual Time 7:06 AM EST 5:21 PM EST
Civil Twilight 6:39 AM EST 5:48 PM EST
Nautical Twilight 6:09 AM EST 6:19 PM EST
Astronomical Twilight 5:39 AM EST 6:49 PM EST
Moon 12:49 PM EST (11/20) No Moon Set
Length of Visible Light 11h 08m
Length of Day
10h 14m
Waxing Crescent, 51% of the Moon is Illuminated
Nov 20
Waxing Crescent
Nov 28
Full
Dec 6
Last Quarter
Dec 13
New
Dec 20
First Quarter

Hourly Weather History & Observations

Time (EST) Temp. Windchill Dew Point Humidity Pressure Visibility Wind Dir Wind Speed Gust Speed Precip Events Conditions
12:56 AM 42.1 °F - 41.0 °F 96% 30.20 in 9.0 mi Calm Calm - N/A   Clear
1:56 AM 41.0 °F 39.0 °F 39.9 °F 96% 30.19 in 10.0 mi North 3.5 mph - N/A   Clear
2:56 AM 45.0 °F 42.6 °F 43.0 °F 93% 30.16 in 10.0 mi NE 4.6 mph - N/A   Clear
3:56 AM 41.0 °F - 39.9 °F 96% 30.17 in 8.0 mi Calm Calm - N/A   Clear
4:56 AM 39.9 °F - 39.0 °F 97% 30.17 in 7.0 mi Calm Calm - N/A   Clear
5:56 AM 39.9 °F - 39.0 °F 97% 30.17 in 10.0 mi Calm Calm - N/A   Clear
6:56 AM 42.1 °F - 41.0 °F 96% 30.19 in 10.0 mi Calm Calm - N/A   Mostly Cloudy
7:56 AM 45.0 °F - 43.0 °F 93% 30.19 in 10.0 mi Calm Calm - N/A   Mostly Cloudy
8:56 AM 46.9 °F - 44.1 °F 90% 30.20 in 10.0 mi ENE 3.5 mph - N/A   Overcast
9:45 AM 48.2 °F - 44.6 °F 87% 30.22 in 10.0 mi Calm Calm - N/A   Mostly Cloudy
9:56 AM 50.0 °F - 44.1 °F 80% 30.22 in 10.0 mi Variable 3.5 mph - N/A   Scattered Clouds
10:56 AM 55.0 °F - 44.1 °F 67% 30.20 in 10.0 mi Variable 3.5 mph - N/A   Clear
11:56 AM 57.9 °F - 44.1 °F 60% 30.17 in 10.0 mi ENE 3.5 mph - N/A   Clear
12:56 PM 61.0 °F - 45.0 °F 56% 30.14 in 10.0 mi NNW 3.5 mph - N/A   Clear
1:56 PM 63.0 °F - 44.1 °F 50% 30.10 in 10.0 mi Variable 3.5 mph - N/A   Clear
3:56 PM 64.0 °F - 42.1 °F 45% 30.08 in 10.0 mi Variable 3.5 mph - N/A   Clear
4:56 PM 62.1 °F - 43.0 °F 50% 30.08 in 10.0 mi Calm Calm - N/A   Clear
5:56 PM 54.0 °F - 44.1 °F 69% 30.09 in 10.0 mi Calm Calm - N/A   Clear
6:56 PM 48.9 °F - 42.1 °F 77% 30.10 in 10.0 mi Calm Calm - N/A   Clear
7:56 PM 46.0 °F - 42.1 °F 86% 30.10 in 10.0 mi Calm Calm - N/A   Clear
8:56 PM 43.0 °F - 41.0 °F 93% 30.11 in 10.0 mi Calm Calm - N/A   Clear
9:56 PM 42.1 °F - 39.9 °F 92% 30.12 in 10.0 mi Calm Calm - N/A   Clear
10:56 PM 41.0 °F - 39.0 °F 93% 30.11 in 10.0 mi Calm Calm - N/A   Clear
11:56 PM 41.0 °F - 39.0 °F 93% 30.11 in 10.0 mi Calm Calm - N/A   Clear